Terminal Aerodrome Forecast
Issued by NWS Sioux Falls, SD

Home | Current Version | Previous Version | Graphics & Text | Print | Product List | Glossary On
Versions: 1 2 3 4 5 6 7 8 9 10 11 12 13 14 15 16 17 18 19 20 21 22 23 24 25 26 27 28
000
FTUS43 KFSD 232336
TAFFSD
TAF
KFSD 232336Z 2400/2424 33004KT P6SM OVC007
     FM240500 VRB03KT P6SM SCT003 BKN008
     FM241600 09009KT 3/4SM -SN OVC005
     FM242300 35004KT 1 1/2SM -SN OVC010=

USA.gov is the U.S. government's official web portal to all federal, state and local government web resources and services.